Time,TemperatureF,DewpointF,PressureIn,WindDirection,WindDirectionDegrees,WindSpeedMPH,WindSpeedGustMPH,Humidity,HourlyPrecipIn,Conditions,Clouds,dailyrainin,SoftwareType,DateUTC
2013-05-11 00:01:00,67.5,62.8,29.89,NNE,25,0.0,2.0,85,0.00,BKN,,0.00,WeatherDisplay:10.37,2013-05-11 04:01:00,
2013-05-11 00:06:00,67.1,62.8,29.88,ENE,72,0.0,3.0,86,0.00,OVC,,0.00,WeatherDisplay:10.37,2013-05-11 04:06:00,
2013-05-11 00:11:00,66.4,62.8,29.88,NNE,19,0.0,2.0,88,0.00,OVC,,0.00,WeatherDisplay:10.37,2013-05-11 04:11:00,
2013-05-11 00:16:00,66.3,63.0,29.89,NNE,28,0.0,2.0,89,0.00,OVC,,0.00,WeatherDisplay:10.37,2013-05-11 04:16:00,
2013-05-11 00:21:00,66.0,63.3,29.88,NE,38,0.0,2.0,91,0.00,OVC,,0.00,WeatherDisplay:10.37,2013-05-11 04:21:00,
2013-05-11 00:25:00,65.8,63.5,29.88,NE,37,1.0,2.0,92,0.00,OVC,,0.00,WeatherDisplay:10.37,2013-05-11 04:25:00,
2013-05-11 00:30:00,65.7,63.6,29.88,NNE,27,0.0,2.0,93,0.00,OVC,,0.00,WeatherDisplay:10.37,2013-05-11 04:30:00,
2013-05-11 00:35:00,65.5,63.7,29.87,North,356,0.0,3.0,94,0.00,OVC,,0.00,WeatherDisplay:10.37,2013-05-11 04:35:00,
2013-05-11 00:40:00,65.3,63.8,29.86,NW,316,0.0,2.0,95,0.00,OVC,,0.00,WeatherDisplay:10.37,2013-05-11 04:40:00,
2013-05-11 00:50:00,64.9,63.5,29.87,SSW,212,0.0,2.0,95,0.00,OVC,,0.00,WeatherDisplay:10.37,2013-05-11 04:50:00,
2013-05-11 00:55:00,64.9,63.8,29.86,WSW,242,0.0,2.0,96,0.00,OVC,,0.00,WeatherDisplay:10.37,2013-05-11 04:55:00,
2013-05-11 01:00:00,64.8,63.6,29.87,ESE,117,0.0,2.0,96,0.00,OVC,,0.00,WeatherDisplay:10.37,2013-05-11 05:00:00,
2013-05-11 01:05:00,64.6,63.4,29.86,ESE,116,0.0,2.0,96,0.00,OVC,,0.00,WeatherDisplay:10.37,2013-05-11 05:05:00,
2013-05-11 01:10:00,64.6,63.7,29.85,NE,45,0.0,2.0,97,0.00,OVC,,0.00,WeatherDisplay:10.37,2013-05-11 05:10:00,
2013-05-11 01:20:00,64.6,63.7,29.86,ESE,107,0.0,1.0,97,0.00,OVC,,0.00,WeatherDisplay:10.37,2013-05-11 05:20:00,
2013-05-11 01:25:00,64.4,63.5,29.86,East,93,0.0,2.0,97,0.00,OVC,,0.00,WeatherDisplay:10.37,2013-05-11 05:25:00,
2013-05-11 01:30:00,64.2,63.4,29.85,ESE,118,0.0,2.0,97,0.00,OVC,,0.00,WeatherDisplay:10.37,2013-05-11 05:30:00,
2013-05-11 01:35:00,64.0,63.2,29.84,NNW,342,0.0,1.0,97,0.00,OVC,,0.00,WeatherDisplay:10.37,2013-05-11 05:35:00,
2013-05-11 01:40:00,64.0,63.2,29.83,NNE,15,0.0,2.0,97,0.00,OVC,,0.00,WeatherDisplay:10.37,2013-05-11 05:40:00,
2013-05-11 01:50:00,64.0,63.2,29.81,North,6,0.0,2.0,97,0.00,OVC,,0.00,WeatherDisplay:10.37,2013-05-11 05:50:00,
2013-05-11 01:55:00,64.0,63.1,29.82,ESE,123,1.0,2.0,97,0.00,OVC,,0.00,WeatherDisplay:10.37,2013-05-11 05:55:00,
2013-05-11 02:00:00,63.7,62.8,29.84,SSE,159,1.0,2.0,97,0.00,OVC,,0.00,WeatherDisplay:10.37,2013-05-11 06:00:00,
2013-05-11 02:05:00,63.7,62.8,29.84,South,180,1.0,2.0,97,0.00,OVC,,0.00,WeatherDisplay:10.37,2013-05-11 06:05:00,
2013-05-11 02:10:00,63.7,62.8,29.84,SE,131,0.0,2.0,97,0.00,OVC,,0.00,WeatherDisplay:10.37,2013-05-11 06:10:00,
2013-05-11 02:20:00,63.7,62.8,29.84,NNE,27,0.0,3.0,97,0.00,OVC,,0.00,WeatherDisplay:10.37,2013-05-11 06:20:00,
2013-05-11 02:25:00,63.7,62.8,29.84,North,356,0.0,2.0,97,0.00,-RA,,0.00,WeatherDisplay:10.37,2013-05-11 06:25:00,
2013-05-11 02:30:00,63.5,62.6,29.84,East,84,0.0,2.0,97,0.00,-RA,,0.00,WeatherDisplay:10.37,2013-05-11 06:30:00,
2013-05-11 02:35:00,63.5,62.6,29.84,East,83,0.0,2.0,97,0.00,-RA,,0.00,WeatherDisplay:10.37,2013-05-11 06:35:00,
2013-05-11 02:40:00,63.3,62.5,29.83,East,81,0.0,2.0,97,0.00,-RA,,0.00,WeatherDisplay:10.37,2013-05-11 06:40:00,
2013-05-11 02:45:00,63.3,62.5,29.83,NE,34,0.0,2.0,97,0.00,-RA,,0.00,WeatherDisplay:10.37,2013-05-11 06:45:00,
2013-05-11 02:50:00,63.2,62.4,29.82,NNE,22,1.0,3.0,97,0.00,-RA,,0.00,WeatherDisplay:10.37,2013-05-11 06:50:00,
2013-05-11 02:55:00,63.3,62.5,29.80,NE,41,1.0,3.0,97,0.00,-RA,,0.00,WeatherDisplay:10.37,2013-05-11 06:55:00,
2013-05-11 03:05:00,63.1,62.3,29.79,ESE,106,0.0,2.0,97,0.00,-RA,,0.00,WeatherDisplay:10.37,2013-05-11 07:05:00,
2013-05-11 03:10:00,63.0,62.2,29.80,SE,124,0.0,2.0,97,0.00,-RA,,0.00,WeatherDisplay:10.37,2013-05-11 07:10:00,
2013-05-11 03:20:00,62.8,61.9,29.80,ESE,119,0.0,2.0,97,0.00,-RA,,0.00,WeatherDisplay:10.37,2013-05-11 07:20:00,
2013-05-11 03:25:00,62.8,61.9,29.81,ESE,107,1.0,2.0,97,0.00,-RA,,0.00,WeatherDisplay:10.37,2013-05-11 07:25:00,
2013-05-11 03:30:00,62.8,61.9,29.81,SE,133,1.0,3.0,97,0.00,-RA,,0.00,WeatherDisplay:10.37,2013-05-11 07:30:00,
2013-05-11 03:35:00,62.6,61.7,29.81,SSE,150,1.0,3.0,97,0.00,-RA,,0.00,WeatherDisplay:10.37,2013-05-11 07:35:00,
2013-05-11 03:40:00,62.6,61.7,29.81,East,79,0.0,2.0,97,0.00,-RA,,0.00,WeatherDisplay:10.37,2013-05-11 07:40:00,
2013-05-11 03:50:00,62.6,61.7,29.81,East,95,1.0,2.0,97,0.00,-RA,,0.00,WeatherDisplay:10.37,2013-05-11 07:50:00,
2013-05-11 03:55:00,62.6,61.7,29.81,ESE,116,0.0,2.0,97,0.00,-RA,,0.00,WeatherDisplay:10.37,2013-05-11 07:55:00,
2013-05-11 04:05:00,62.6,61.7,29.81,SSE,166,1.0,2.0,97,0.00,-RA,,0.00,WeatherDisplay:10.37,2013-05-11 08:05:00,
2013-05-11 04:10:00,62.6,61.7,29.81,SSE,162,0.0,2.0,97,0.00,-RA,,0.00,WeatherDisplay:10.37,2013-05-11 08:10:00,
2013-05-11 04:20:00,62.6,61.7,29.80,East,89,0.0,2.0,97,0.00,-RA,,0.00,WeatherDisplay:10.37,2013-05-11 08:20:00,
2013-05-11 04:25:00,62.6,61.7,29.80,East,83,0.0,2.0,97,0.00,-RA,,0.00,WeatherDisplay:10.37,2013-05-11 08:25:00,
2013-05-11 04:30:00,62.6,61.7,29.80,ENE,62,0.0,1.0,97,0.00,-RA,,0.00,WeatherDisplay:10.37,2013-05-11 08:30:00,
2013-05-11 04:35:00,62.6,61.7,29.80,ENE,58,0.0,3.0,97,0.00,-RA,,0.00,WeatherDisplay:10.37,2013-05-11 08:35:00,
2013-05-11 04:40:00,62.6,61.7,29.80,ENE,78,0.0,2.0,97,0.00,-RA,,0.00,WeatherDisplay:10.37,2013-05-11 08:40:00,
2013-05-11 04:50:00,62.2,61.7,29.79,NNE,26,0.0,5.0,98,0.00,-RA,,0.00,WeatherDisplay:10.37,2013-05-11 08:50:00,
2013-05-11 04:55:00,62.2,61.7,29.79,NNE,28,0.0,2.0,98,0.00,-RA,,0.00,WeatherDisplay:10.37,2013-05-11 08:55:00,
2013-05-11 05:05:00,62.6,61.7,29.79,NE,41,0.0,2.0,97,0.00,OVC,,0.00,WeatherDisplay:10.37,2013-05-11 09:05:00,
2013-05-11 05:10:00,62.6,61.7,29.79,NE,42,1.0,2.0,97,0.00,OVC,,0.00,WeatherDisplay:10.37,2013-05-11 09:10:00,
2013-05-11 05:20:00,62.6,61.7,29.78,NE,51,0.0,2.0,97,0.00,OVC,,0.00,WeatherDisplay:10.37,2013-05-11 09:20:00,
2013-05-11 05:25:00,62.6,61.7,29.78,North,355,1.0,4.0,97,0.00,OVC,,0.00,WeatherDisplay:10.37,2013-05-11 09:25:00,
2013-05-11 05:30:00,62.6,61.7,29.78,West,273,1.0,4.0,97,0.00,OVC,,0.00,WeatherDisplay:10.37,2013-05-11 09:30:00,
2013-05-11 05:35:00,62.4,61.8,29.78,SW,234,0.0,3.0,98,0.00,OVC,,0.00,WeatherDisplay:10.37,2013-05-11 09:35:00,
2013-05-11 05:40:00,62.6,61.7,29.78,North,6,1.0,2.0,97,0.00,OVC,,0.00,WeatherDisplay:10.37,2013-05-11 09:40:00,
2013-05-11 05:45:00,62.6,61.7,29.78,NNE,27,0.0,1.0,97,0.00,OVC,,0.00,WeatherDisplay:10.37,2013-05-11 09:45:00,
2013-05-11 05:50:00,62.6,61.7,29.77,North,4,0.0,1.0,97,0.00,OVC,,0.00,WeatherDisplay:10.37,2013-05-11 09:50:00,
2013-05-11 05:55:00,62.8,61.9,29.78,North,0,0.0,1.0,97,0.00,OVC,,0.00,WeatherDisplay:10.37,2013-05-11 09:55:00,
2013-05-11 06:00:00,62.8,61.9,29.78,North,0,0.0,1.0,97,0.00,OVC,,0.00,WeatherDisplay:10.37,2013-05-11 10:00:00,
2013-05-11 06:05:00,62.8,61.9,29.78,North,0,0.0,0.0,97,0.00,-RA,,0.00,WeatherDisplay:10.37,2013-05-11 10:05:00,
2013-05-11 06:10:00,62.8,61.9,29.78,NE,38,0.0,1.0,97,0.00,-RA,,0.00,WeatherDisplay:10.37,2013-05-11 10:10:00,
2013-05-11 06:20:00,62.6,61.7,29.77,East,82,0.0,1.0,97,0.00,-RA,,0.00,WeatherDisplay:10.37,2013-05-11 10:20:00,
2013-05-11 06:25:00,62.6,61.7,29.78,NE,42,0.0,2.0,97,0.00,-RA,,0.00,WeatherDisplay:10.37,2013-05-11 10:25:00,
2013-05-11 06:30:00,62.6,61.7,29.78,North,349,1.0,2.0,97,0.00,-RA,,0.00,WeatherDisplay:10.37,2013-05-11 10:30:00,
2013-05-11 06:35:00,62.6,61.7,29.77,East,79,2.0,5.0,97,0.00,-RA,,0.00,WeatherDisplay:10.37,2013-05-11 10:35:00,
2013-05-11 06:40:00,62.6,61.7,29.78,ESE,118,1.0,5.0,97,0.00,-RA,,0.00,WeatherDisplay:10.37,2013-05-11 10:40:00,
2013-05-11 06:50:00,62.8,61.9,29.78,ENE,71,1.0,4.0,97,0.00,-RA,,0.00,WeatherDisplay:10.37,2013-05-11 10:50:00,
2013-05-11 06:55:00,62.8,61.9,29.78,East,85,1.0,2.0,97,0.00,-RA,,0.00,WeatherDisplay:10.37,2013-05-11 10:55:00,
2013-05-11 07:05:00,62.8,61.9,29.78,NNE,32,0.0,2.0,97,0.00,OVC,,0.00,WeatherDisplay:10.37,2013-05-11 11:05:00,
2013-05-11 07:10:00,62.8,61.9,29.78,ENE,71,0.0,2.0,97,0.00,OVC,,0.00,WeatherDisplay:10.37,2013-05-11 11:10:00,
2013-05-11 07:20:00,63.1,62.3,29.78,NE,35,0.0,3.0,97,0.00,OVC,,0.00,WeatherDisplay:10.37,2013-05-11 11:20:00,
2013-05-11 07:25:00,63.1,62.3,29.78,North,9,0.0,2.0,97,0.00,OVC,,0.00,WeatherDisplay:10.37,2013-05-11 11:25:00,
2013-05-11 07:30:00,63.1,62.3,29.78,NE,37,0.0,2.0,97,0.00,OVC,,0.00,WeatherDisplay:10.37,2013-05-11 11:30:00,
2013-05-11 07:35:00,63.1,62.3,29.79,ENE,77,0.0,3.0,97,0.00,OVC,,0.00,WeatherDisplay:10.37,2013-05-11 11:35:00,
2013-05-11 07:40:00,63.2,62.4,29.79,NE,54,0.0,2.0,97,0.00,OVC,,0.00,WeatherDisplay:10.37,2013-05-11 11:40:00,
2013-05-11 07:50:00,63.5,62.6,29.79,NE,38,0.0,3.0,97,0.00,OVC,,0.00,WeatherDisplay:10.37,2013-05-11 11:50:00,
2013-05-11 07:55:00,63.5,62.6,29.79,NNE,19,1.0,3.0,97,0.00,OVC,,0.00,WeatherDisplay:10.37,2013-05-11 11:55:00,
2013-05-11 08:00:00,63.5,62.6,29.79,NE,37,1.0,2.0,97,0.00,OVC,,0.00,WeatherDisplay:10.37,2013-05-11 12:00:00,
2013-05-11 08:05:00,63.7,62.8,29.79,NNE,27,1.0,2.0,97,0.00,OVC,,0.00,WeatherDisplay:10.37,2013-05-11 12:05:00,
2013-05-11 08:11:00,63.7,62.8,29.79,NE,37,1.0,2.0,97,0.00,OVC,,0.00,WeatherDisplay:10.37,2013-05-11 12:11:00,
2013-05-11 08:16:00,63.9,63.0,29.79,NNE,25,0.0,2.0,97,0.00,OVC,,0.00,WeatherDisplay:10.37,2013-05-11 12:16:00,
2013-05-11 08:21:00,63.9,63.0,29.78,NNE,18,0.0,2.0,97,0.00,OVC,,0.00,WeatherDisplay:10.37,2013-05-11 12:21:00,
2013-05-11 08:26:00,64.0,63.2,29.79,NNE,30,0.0,2.0,97,0.00,OVC,,0.00,WeatherDisplay:10.37,2013-05-11 12:26:00,
2013-05-11 08:31:00,64.0,63.2,29.78,NE,40,0.0,2.0,97,0.00,OVC,,0.00,WeatherDisplay:10.37,2013-05-11 12:31:00,
2013-05-11 08:36:00,64.2,63.4,29.78,NE,55,1.0,3.0,97,0.00,OVC,,0.00,WeatherDisplay:10.37,2013-05-11 12:36:00,
2013-05-11 08:41:00,64.4,64.1,29.77,ENE,76,1.0,2.0,99,0.00,OVC,,0.00,WeatherDisplay:10.37,2013-05-11 12:41:00,
2013-05-11 08:46:00,64.6,64.3,29.77,East,95,1.0,5.0,99,0.00,OVC,,0.00,WeatherDisplay:10.37,2013-05-11 12:46:00,
2013-05-11 08:51:00,64.8,64.5,29.77,East,97,0.0,2.0,99,0.00,OVC,,0.00,WeatherDisplay:10.37,2013-05-11 12:51:00,
2013-05-11 08:56:00,65.1,64.8,29.77,NE,49,0.0,2.0,99,0.00,OVC,,0.00,WeatherDisplay:10.37,2013-05-11 12:56:00,
2013-05-11 09:01:00,65.4,65.2,29.77,East,85,0.0,3.0,99,0.00,OVC,,0.00,WeatherDisplay:10.37,2013-05-11 13:01:00,
2013-05-11 09:06:00,65.7,65.4,29.76,ESE,122,0.0,2.0,99,0.00,SCT,,0.00,WeatherDisplay:10.37,2013-05-11 13:06:00,
2013-05-11 09:11:00,66.0,65.7,29.76,ESE,117,1.0,3.0,99,0.00,SCT,,0.00,WeatherDisplay:10.37,2013-05-11 13:11:00,
2013-05-11 09:16:00,66.0,65.7,29.77,SE,135,0.0,3.0,99,0.00,SCT,,0.00,WeatherDisplay:10.37,2013-05-11 13:16:00,
2013-05-11 09:21:00,66.0,65.7,29.76,East,98,0.0,5.0,99,0.00,SCT,,0.00,WeatherDisplay:10.37,2013-05-11 13:21:00,
2013-05-11 09:30:00,66.0,65.7,29.77,ESE,106,1.0,4.0,99,0.00,BKN,,0.00,WeatherDisplay:10.37,2013-05-11 13:30:00,
2013-05-11 09:35:00,66.0,65.7,29.76,ESE,118,1.0,4.0,99,0.00,BKN,,0.00,WeatherDisplay:10.37,2013-05-11 13:35:00,
2013-05-11 09:40:00,66.0,65.7,29.77,SE,128,1.0,4.0,99,0.00,BKN,,0.00,WeatherDisplay:10.37,2013-05-11 13:40:00,
2013-05-11 09:46:00,66.0,53.9,29.77,East,88,0.0,2.0,65,0.00,BKN,,0.00,WeatherDisplay:10.37,2013-05-11 13:46:00,
2013-05-11 09:50:00,66.2,65.9,29.77,ESE,119,1.0,6.0,99,0.00,BKN,,0.00,WeatherDisplay:10.37,2013-05-11 13:50:00,
2013-05-11 09:56:00,66.2,65.9,29.77,East,100,1.0,5.0,99,0.00,BKN,,0.00,WeatherDisplay:10.37,2013-05-11 13:56:00,
2013-05-11 10:01:00,66.2,65.9,29.77,SE,132,3.0,8.0,99,0.00,BKN,,0.00,WeatherDisplay:10.37,2013-05-11 14:01:00,
2013-05-11 10:06:00,66.1,65.8,29.77,SSE,160,1.0,8.0,99,0.00,OVC,,0.00,WeatherDisplay:10.37,2013-05-11 14:06:00,
2013-05-11 10:11:00,66.0,65.7,29.77,SE,132,1.0,3.0,99,0.00,OVC,,0.00,WeatherDisplay:10.37,2013-05-11 14:11:00,
2013-05-11 10:16:00,66.0,65.7,29.76,East,101,1.0,2.0,99,0.00,OVC,,0.00,WeatherDisplay:10.37,2013-05-11 14:16:00,
2013-05-11 10:21:00,66.0,65.7,29.76,NNE,28,1.0,3.0,99,0.00,OVC,,0.00,WeatherDisplay:10.37,2013-05-11 14:21:00,
2013-05-11 10:26:00,66.0,65.7,29.75,NNE,28,3.0,6.0,99,0.00,OVC,,0.00,WeatherDisplay:10.37,2013-05-11 14:26:00,
2013-05-11 10:31:00,65.9,65.6,29.75,NE,55,0.0,6.0,99,0.00,OVC,,0.00,WeatherDisplay:10.37,2013-05-11 14:31:00,
2013-05-11 10:36:00,66.0,65.7,29.75,ENE,68,1.0,3.0,99,0.00,OVC,,0.00,WeatherDisplay:10.37,2013-05-11 14:36:00,
2013-05-11 10:41:00,66.2,65.6,29.75,ENE,72,1.0,3.0,98,0.00,OVC,,0.00,WeatherDisplay:10.37,2013-05-11 14:41:00,
2013-05-11 10:46:00,66.2,65.6,29.75,ENE,60,1.0,3.0,98,0.00,OVC,,0.00,WeatherDisplay:10.37,2013-05-11 14:46:00,
2013-05-11 10:51:00,66.6,66.0,29.74,East,79,2.0,3.0,98,0.00,OVC,,0.00,WeatherDisplay:10.37,2013-05-11 14:51:00,
2013-05-11 10:56:00,66.8,66.2,29.75,East,85,0.0,3.0,98,0.00,OVC,,0.00,WeatherDisplay:10.37,2013-05-11 14:56:00,
2013-05-11 11:01:00,67.1,66.2,29.75,ENE,78,1.0,2.0,97,0.00,OVC,,0.00,WeatherDisplay:10.37,2013-05-11 15:01:00,
2013-05-11 11:06:00,67.3,66.4,29.75,NE,50,1.0,6.0,97,0.00,OVC,,0.00,WeatherDisplay:10.37,2013-05-11 15:06:00,
2013-05-11 11:11:00,67.3,66.4,29.75,ENE,76,0.0,3.0,97,0.00,OVC,,0.00,WeatherDisplay:10.37,2013-05-11 15:11:00,
2013-05-11 11:17:00,67.3,66.1,29.75,ENE,75,1.0,4.0,96,0.00,OVC,,0.00,WeatherDisplay:10.37,2013-05-11 15:17:00,
2013-05-11 11:22:00,67.5,66.3,29.75,NNE,27,0.0,3.0,96,0.00,OVC,,0.00,WeatherDisplay:10.37,2013-05-11 15:22:00,
2013-05-11 11:27:00,67.5,66.3,29.75,ENE,68,1.0,3.0,96,0.00,OVC,,0.00,WeatherDisplay:10.37,2013-05-11 15:27:00,
2013-05-11 11:35:00,67.6,66.5,29.75,NE,42,1.0,3.0,96,0.00,OVC,,0.00,WeatherDisplay:10.37,2013-05-11 15:35:00,
2013-05-11 11:40:00,67.8,66.6,29.75,East,93,0.0,3.0,96,0.00,OVC,,0.00,WeatherDisplay:10.37,2013-05-11 15:40:00,
2013-05-11 11:45:00,67.8,66.6,29.76,ESE,103,1.0,3.0,96,0.00,OVC,,0.00,WeatherDisplay:10.37,2013-05-11 15:45:00,
2013-05-11 11:50:00,67.8,66.6,29.75,ESE,102,1.0,3.0,96,0.00,OVC,,0.00,WeatherDisplay:10.37,2013-05-11 15:50:00,
2013-05-11 11:55:00,67.8,66.6,29.75,NNE,22,0.0,3.0,96,0.00,OVC,,0.00,WeatherDisplay:10.37,2013-05-11 15:55:00,
2013-05-11 12:00:00,67.9,66.7,29.75,ENE,78,1.0,2.0,96,0.00,OVC,,0.00,WeatherDisplay:10.37,2013-05-11 16:00:00,
2013-05-11 12:05:00,68.0,66.5,29.74,ESE,105,1.0,3.0,95,0.00,OVC,,0.00,WeatherDisplay:10.37,2013-05-11 16:05:00,
2013-05-11 12:10:00,68.2,66.7,29.75,North,350,1.0,4.0,95,0.00,OVC,,0.00,WeatherDisplay:10.37,2013-05-11 16:10:00,
2013-05-11 12:16:00,68.4,66.6,29.75,NNE,29,1.0,2.0,94,0.00,OVC,,0.00,WeatherDisplay:10.37,2013-05-11 16:16:00,
2013-05-11 12:21:00,68.5,66.7,29.74,WNW,285,1.0,6.0,94,0.00,OVC,,0.00,WeatherDisplay:10.37,2013-05-11 16:21:00,
2013-05-11 12:26:00,68.9,67.1,29.74,NNE,16,1.0,3.0,94,0.00,OVC,,0.00,WeatherDisplay:10.37,2013-05-11 16:26:00,
2013-05-11 12:31:00,69.1,67.3,29.74,East,91,1.0,4.0,94,0.00,OVC,,0.00,WeatherDisplay:10.37,2013-05-11 16:31:00,
2013-05-11 12:40:00,69.3,67.1,29.74,ENE,68,1.0,6.0,93,0.00,OVC,,0.00,WeatherDisplay:10.37,2013-05-11 16:40:00,
2013-05-11 12:45:00,69.3,66.8,29.74,NE,49,0.0,6.0,92,0.00,OVC,,0.00,WeatherDisplay:10.37,2013-05-11 16:45:00,
2013-05-11 12:50:00,69.4,67.3,29.74,SE,126,1.0,3.0,93,0.00,OVC,,0.00,WeatherDisplay:10.37,2013-05-11 16:50:00,
2013-05-11 12:55:00,69.6,67.2,29.73,NNE,29,2.0,5.0,92,0.00,OVC,,0.00,WeatherDisplay:10.37,2013-05-11 16:55:00,
2013-05-11 13:00:00,69.9,67.1,29.73,North,356,0.0,3.0,91,0.00,OVC,,0.00,WeatherDisplay:10.37,2013-05-11 17:00:00,
2013-05-11 13:05:00,70.2,67.1,29.73,West,272,0.0,4.0,90,0.00,OVC,,0.00,WeatherDisplay:10.37,2013-05-11 17:05:00,
2013-05-11 13:11:00,70.2,67.1,29.72,NNE,15,1.0,6.0,90,0.00,OVC,,0.00,WeatherDisplay:10.37,2013-05-11 17:11:00,
2013-05-11 13:16:00,70.2,66.4,29.71,NE,51,1.0,6.0,88,0.00,OVC,,0.00,WeatherDisplay:10.37,2013-05-11 17:16:00,
2013-05-11 13:21:00,70.2,66.4,29.71,SE,141,0.0,5.0,88,0.00,OVC,,0.00,WeatherDisplay:10.37,2013-05-11 17:21:00,
2013-05-11 13:26:00,70.2,66.4,29.71,East,97,2.0,3.0,88,0.00,OVC,,0.00,WeatherDisplay:10.37,2013-05-11 17:26:00,
2013-05-11 13:35:00,70.2,66.4,29.71,South,172,0.0,4.0,88,0.00,OVC,,0.00,WeatherDisplay:10.37,2013-05-11 17:35:00,
2013-05-11 13:40:00,70.2,66.4,29.71,South,178,0.0,2.0,88,0.00,OVC,,0.00,WeatherDisplay:10.37,2013-05-11 17:40:00,
2013-05-11 13:45:00,70.3,66.6,29.71,SSE,149,1.0,5.0,88,0.00,OVC,,0.00,WeatherDisplay:10.37,2013-05-11 17:45:00,
2013-05-11 13:55:00,70.5,66.1,29.71,ENE,77,3.0,6.0,86,0.00,OVC,,0.00,WeatherDisplay:10.37,2013-05-11 17:55:00,
2013-05-11 14:00:00,70.5,66.1,29.70,NNE,31,2.0,5.0,86,0.00,OVC,,0.00,WeatherDisplay:10.37,2013-05-11 18:00:00,
2013-05-11 14:05:00,70.4,65.7,29.70,ESE,108,0.0,6.0,85,0.00,BKN,,0.00,WeatherDisplay:10.37,2013-05-11 18:05:00,
2013-05-11 14:10:00,70.5,65.8,29.69,SSE,151,0.0,6.0,85,0.00,BKN,,0.00,WeatherDisplay:10.37,2013-05-11 18:10:00,
2013-05-11 14:15:00,71.1,66.7,29.69,ESE,104,1.0,4.0,86,0.00,BKN,,0.00,WeatherDisplay:10.37,2013-05-11 18:15:00,
2013-05-11 14:20:00,72.0,67.3,29.70,East,85,1.0,5.0,85,0.00,BKN,,0.00,WeatherDisplay:10.37,2013-05-11 18:20:00,
2013-05-11 14:25:00,72.5,67.4,29.69,East,101,1.0,4.0,84,0.00,BKN,,0.00,WeatherDisplay:10.37,2013-05-11 18:25:00,
2013-05-11 14:30:00,72.7,67.2,29.69,ESE,117,0.0,3.0,83,0.00,BKN,,0.00,WeatherDisplay:10.37,2013-05-11 18:30:00,
2013-05-11 14:35:00,72.5,67.0,29.68,ESE,109,0.0,5.0,83,0.00,BKN,,0.00,WeatherDisplay:10.37,2013-05-11 18:35:00,
2013-05-11 14:40:00,72.3,66.5,29.68,ESE,108,0.0,2.0,82,0.00,BKN,,0.00,WeatherDisplay:10.37,2013-05-11 18:40:00,
2013-05-11 14:45:00,72.1,66.7,29.68,East,93,0.0,4.0,83,0.00,BKN,,0.00,WeatherDisplay:10.37,2013-05-11 18:45:00,
2013-05-11 14:50:00,72.0,66.5,29.68,NE,54,1.0,2.0,83,0.00,BKN,,0.00,WeatherDisplay:10.37,2013-05-11 18:50:00,
2013-05-11 14:55:00,71.6,66.2,29.68,SE,128,1.0,3.0,83,0.00,BKN,,0.00,WeatherDisplay:10.37,2013-05-11 18:55:00,
2013-05-11 15:00:00,71.2,66.2,29.68,SSE,149,0.0,2.0,84,0.00,BKN,,0.00,WeatherDisplay:10.37,2013-05-11 19:00:00,
2013-05-11 15:05:00,70.9,66.1,29.72,NW,313,5.0,15.0,85,0.00,BKN,,0.00,WeatherDisplay:10.37,2013-05-11 19:05:00,
2013-05-11 15:10:00,68.2,62.8,29.70,NW,321,1.0,15.0,83,0.00,BKN,,0.00,WeatherDisplay:10.37,2013-05-11 19:10:00,
2013-05-11 15:15:00,65.6,60.9,29.70,ESE,103,1.0,2.0,85,0.00, +RA,,0.00,WeatherDisplay:10.37,2013-05-11 19:15:00,
2013-05-11 15:20:00,64.1,60.1,29.71,NNE,18,0.0,2.0,87,0.00, +RA,,0.00,WeatherDisplay:10.37,2013-05-11 19:20:00,
2013-05-11 15:25:00,62.9,59.6,29.71,NE,52,0.0,4.0,89,0.00,BKN,,0.00,WeatherDisplay:10.37,2013-05-11 19:25:00,
2013-05-11 15:30:00,62.5,59.9,29.71,East,90,0.0,2.0,91,0.00,BKN,,0.00,WeatherDisplay:10.37,2013-05-11 19:30:00,
2013-05-11 15:35:00,62.2,60.2,29.72,East,90,1.0,2.0,93,0.00,-RA,,0.00,WeatherDisplay:10.37,2013-05-11 19:35:00,
2013-05-11 15:40:00,62.1,60.3,29.71,East,90,0.0,2.0,94,0.00,-RA,,0.00,WeatherDisplay:10.37,2013-05-11 19:40:00,
2013-05-11 15:46:00,61.9,60.4,29.71,East,85,1.0,3.0,95,0.00,OVC,,0.00,WeatherDisplay:10.37,2013-05-11 19:46:00,
2013-05-11 15:55:00,61.8,60.7,29.70,East,90,0.0,2.0,96,0.00,OVC,,0.00,WeatherDisplay:10.37,2013-05-11 19:55:00,
2013-05-11 16:01:00,61.9,61.0,29.70,East,90,0.0,1.0,97,0.00,OVC,,0.00,WeatherDisplay:10.37,2013-05-11 20:01:00,
2013-05-11 16:06:00,62.2,61.7,29.70,ENE,71,1.0,2.0,98,0.00,-RA,,0.00,WeatherDisplay:10.37,2013-05-11 20:06:00,
2013-05-11 16:11:00,63.1,62.2,29.70,North,8,1.0,2.0,97,0.00,-RA,,0.00,WeatherDisplay:10.37,2013-05-11 20:11:00,
2013-05-11 16:16:00,63.3,62.5,29.69,WNW,300,0.0,2.0,97,0.00,-RA,,0.00,WeatherDisplay:10.37,2013-05-11 20:16:00,
2013-05-11 16:21:00,63.7,62.8,29.69,South,185,1.0,2.0,97,0.00,-RA,,0.00,WeatherDisplay:10.37,2013-05-11 20:21:00,
2013-05-11 16:26:00,63.7,62.8,29.69,SSE,152,0.0,2.0,97,0.00,-RA,,0.00,WeatherDisplay:10.37,2013-05-11 20:26:00,
2013-05-11 16:31:00,64.0,63.2,29.69,SE,134,0.0,2.0,97,0.00,-RA,,0.00,WeatherDisplay:10.37,2013-05-11 20:31:00,
2013-05-11 16:36:00,64.2,63.4,29.69,SE,125,1.0,2.0,97,0.00,-RA,,0.00,WeatherDisplay:10.37,2013-05-11 20:36:00,
2013-05-11 16:41:00,64.6,64.3,29.69,ESE,113,1.0,2.0,99,0.00,-RA,,0.00,WeatherDisplay:10.37,2013-05-11 20:41:00,
2013-05-11 16:46:00,64.8,64.5,29.69,ENE,67,0.0,2.0,99,0.00,-RA,,0.00,WeatherDisplay:10.37,2013-05-11 20:46:00,
2013-05-11 16:56:00,65.1,64.8,29.69,ESE,111,0.0,2.0,99,0.00,-RA,,0.00,WeatherDisplay:10.37,2013-05-11 20:56:00,
2013-05-11 17:01:00,65.3,65.0,29.69,SE,135,0.0,1.0,99,0.00,-RA,,0.00,WeatherDisplay:10.37,2013-05-11 21:01:00,
2013-05-11 17:06:00,65.3,65.0,29.69,East,91,0.0,2.0,99,0.00,CLR,,0.00,WeatherDisplay:10.37,2013-05-11 21:06:00,
2013-05-11 17:11:00,65.5,65.2,29.69,NE,52,0.0,2.0,99,0.00,CLR,,0.00,WeatherDisplay:10.37,2013-05-11 21:11:00,
2013-05-11 17:16:00,65.7,65.4,29.69,East,80,0.0,1.0,99,0.00,CLR,,0.00,WeatherDisplay:10.37,2013-05-11 21:16:00,
2013-05-11 17:21:00,65.7,65.5,29.69,East,90,0.0,2.0,99,0.00,CLR,,0.00,WeatherDisplay:10.37,2013-05-11 21:21:00,
2013-05-11 17:26:00,65.7,65.4,29.69,East,90,0.0,2.0,99,0.00,CLR,,0.00,WeatherDisplay:10.37,2013-05-11 21:26:00,
2013-05-11 17:31:00,65.8,65.6,29.69,NE,54,1.0,2.0,99,0.00,CLR,,0.00,WeatherDisplay:10.37,2013-05-11 21:31:00,
2013-05-11 17:41:00,66.0,65.7,29.68,SE,127,0.0,1.0,99,0.00,CLR,,0.00,WeatherDisplay:10.37,2013-05-11 21:41:00,
2013-05-11 17:46:00,65.9,65.6,29.69,ESE,109,0.0,2.0,99,0.00,CLR,,0.00,WeatherDisplay:10.37,2013-05-11 21:46:00,
2013-05-11 17:56:00,66.0,65.7,29.68,NNE,25,0.0,2.0,99,0.00,CLR,,0.00,WeatherDisplay:10.37,2013-05-11 21:56:00,
2013-05-11 18:01:00,66.0,65.8,29.68,East,82,0.0,1.0,99,0.00,CLR,,0.00,WeatherDisplay:10.37,2013-05-11 22:01:00,
2013-05-11 18:11:00,66.2,65.9,29.68,East,90,0.0,1.0,99,0.00,CLR,,0.00,WeatherDisplay:10.37,2013-05-11 22:11:00,
2013-05-11 18:16:00,66.2,65.9,29.69,East,90,0.0,1.0,99,0.00,CLR,,0.00,WeatherDisplay:10.37,2013-05-11 22:16:00,
2013-05-11 18:21:00,66.2,65.9,29.68,East,90,0.0,1.0,99,0.00,CLR,,0.00,WeatherDisplay:10.37,2013-05-11 22:21:00,
2013-05-11 18:26:00,66.2,65.9,29.69,East,90,0.0,1.0,99,0.00,CLR,,0.00,WeatherDisplay:10.37,2013-05-11 22:26:00,
2013-05-11 18:31:00,66.2,65.9,29.68,East,90,0.0,1.0,99,0.00,CLR,,0.00,WeatherDisplay:10.37,2013-05-11 22:31:00,
2013-05-11 18:40:00,66.0,65.7,29.68,ESE,108,0.0,2.0,99,0.00,CLR,,0.00,WeatherDisplay:10.37,2013-05-11 22:40:00,
2013-05-11 18:45:00,65.8,65.6,29.68,ESE,121,0.0,1.0,99,0.00,CLR,,0.00,WeatherDisplay:10.37,2013-05-11 22:45:00,
2013-05-11 18:50:00,65.8,65.6,29.68,ENE,57,0.0,2.0,99,0.00,CLR,,0.00,WeatherDisplay:10.37,2013-05-11 22:50:00,
2013-05-11 18:55:00,65.7,65.4,29.68,NE,45,0.0,0.0,99,0.00,CLR,,0.00,WeatherDisplay:10.37,2013-05-11 22:55:00,
2013-05-11 19:00:00,65.7,65.4,29.69,NE,45,0.0,1.0,99,0.00,CLR,,0.00,WeatherDisplay:10.37,2013-05-11 23:00:00,
2013-05-11 19:05:00,65.7,65.4,29.69,ENE,69,0.0,1.0,99,0.00,FEW,,0.00,WeatherDisplay:10.37,2013-05-11 23:05:00,
2013-05-11 19:10:00,65.5,65.2,29.70,East,90,0.0,0.0,99,0.00,FEW,,0.00,WeatherDisplay:10.37,2013-05-11 23:10:00,
2013-05-11 19:15:00,65.5,65.2,29.69,ENE,69,0.0,0.0,99,0.00,FEW,,0.00,WeatherDisplay:10.37,2013-05-11 23:15:00,
2013-05-11 19:20:00,65.5,65.2,29.69,NNE,17,0.0,0.0,99,0.00,FEW,,0.00,WeatherDisplay:10.37,2013-05-11 23:20:00,
2013-05-11 19:25:00,65.3,65.0,29.69,NNE,24,0.0,0.0,99,0.00,FEW,,0.00,WeatherDisplay:10.37,2013-05-11 23:25:00,
2013-05-11 19:30:00,65.3,65.0,29.69,ENE,76,0.0,0.0,99,0.00,FEW,,0.00,WeatherDisplay:10.37,2013-05-11 23:30:00,
2013-05-11 19:35:00,65.2,65.0,29.69,East,90,0.0,0.0,99,0.00,FEW,,0.00,WeatherDisplay:10.37,2013-05-11 23:35:00,
2013-05-11 19:45:00,65.1,64.8,29.69,East,90,0.0,0.0,99,0.00,FEW,,0.00,WeatherDisplay:10.37,2013-05-11 23:45:00,
2013-05-11 19:50:00,65.1,64.8,29.69,East,90,0.0,0.0,99,0.00,FEW,,0.00,WeatherDisplay:10.37,2013-05-11 23:50:00,
2013-05-11 19:55:00,64.9,64.7,29.69,East,90,0.0,0.0,99,0.00,FEW,,0.00,WeatherDisplay:10.37,2013-05-11 23:55:00,
2013-05-11 20:00:00,64.8,64.5,29.69,East,90,0.0,0.0,99,0.00,FEW,,0.00,WeatherDisplay:10.37,2013-05-12 00:00:00,
2013-05-11 20:05:00,64.8,64.5,29.69,SE,137,0.0,2.0,99,0.00,-RA,,0.00,WeatherDisplay:10.37,2013-05-12 00:05:00,
2013-05-11 20:10:00,64.7,64.4,29.70,South,187,0.0,1.0,99,0.00,-RA,,0.00,WeatherDisplay:10.37,2013-05-12 00:10:00,
2013-05-11 20:15:00,64.6,64.3,29.69,South,180,1.0,2.0,99,0.00,-RA,,0.00,WeatherDisplay:10.37,2013-05-12 00:15:00,
2013-05-11 20:20:00,64.6,64.3,29.69,ESE,103,0.0,2.0,99,0.00,-RA,,0.00,WeatherDisplay:10.37,2013-05-12 00:20:00,
2013-05-11 20:25:00,64.6,64.3,29.69,East,82,1.0,2.0,99,0.00,-RA,,0.00,WeatherDisplay:10.37,2013-05-12 00:25:00,
2013-05-11 20:31:00,64.5,64.2,29.69,East,101,0.0,1.0,99,0.00,-RA,,0.00,WeatherDisplay:10.37,2013-05-12 00:31:00,
2013-05-11 20:36:00,64.4,64.1,29.69,East,90,0.0,2.0,99,0.00,-RA,,0.00,WeatherDisplay:10.37,2013-05-12 00:36:00,
2013-05-11 20:41:00,64.4,64.1,29.69,East,90,0.0,1.0,99,0.00,-RA,,0.00,WeatherDisplay:10.37,2013-05-12 00:41:00,
2013-05-11 20:46:00,64.2,63.4,29.69,East,90,0.0,2.0,97,0.00,-RA,,0.00,WeatherDisplay:10.37,2013-05-12 00:46:00,
2013-05-11 20:56:00,64.2,63.4,29.69,East,90,0.0,1.0,97,0.00,-RA,,0.00,WeatherDisplay:10.37,2013-05-12 00:56:00,
2013-05-11 21:01:00,64.2,63.4,29.68,East,90,0.0,0.0,97,0.00,-RA,,0.00,WeatherDisplay:10.37,2013-05-12 01:01:00,
2013-05-11 21:06:00,64.0,63.2,29.69,East,90,0.0,1.0,97,0.00,BKN,,0.00,WeatherDisplay:10.37,2013-05-12 01:06:00,
2013-05-11 21:11:00,64.0,63.2,29.69,ESE,105,0.0,3.0,97,0.00,BKN,,0.00,WeatherDisplay:10.37,2013-05-12 01:11:00,
2013-05-11 21:16:00,63.9,63.0,29.69,ESE,122,0.0,2.0,97,0.00,BKN,,0.00,WeatherDisplay:10.37,2013-05-12 01:16:00,
2013-05-11 21:21:00,63.7,62.8,29.69,ESE,107,0.0,1.0,97,0.00,BKN,,0.00,WeatherDisplay:10.37,2013-05-12 01:21:00,
2013-05-11 21:26:00,63.5,62.6,29.70,East,90,0.0,1.0,97,0.00,SCT,,0.00,WeatherDisplay:10.37,2013-05-12 01:26:00,
2013-05-11 21:35:00,63.1,62.3,29.70,East,90,0.0,1.0,97,0.00,SCT,,0.00,WeatherDisplay:10.37,2013-05-12 01:35:00,
2013-05-11 21:40:00,63.0,62.1,29.70,East,90,0.0,0.0,97,0.00,SCT,,0.00,WeatherDisplay:10.37,2013-05-12 01:40:00,
2013-05-11 21:45:00,62.8,61.9,29.70,East,90,0.0,0.0,97,0.00,SCT,,0.00,WeatherDisplay:10.37,2013-05-12 01:45:00,
2013-05-11 21:50:00,62.8,61.9,29.70,East,90,0.0,0.0,97,0.00,SCT,,0.00,WeatherDisplay:10.37,2013-05-12 01:50:00,
2013-05-11 21:55:00,62.6,61.7,29.69,East,90,0.0,0.0,97,0.00,SCT,,0.00,WeatherDisplay:10.37,2013-05-12 01:55:00,
2013-05-11 22:00:00,62.5,61.9,29.69,East,90,0.0,0.0,98,0.00,SCT,,0.00,WeatherDisplay:10.37,2013-05-12 02:00:00,
2013-05-11 22:05:00,62.2,61.7,29.69,East,90,0.0,0.0,98,0.00,SCT,,0.00,WeatherDisplay:10.37,2013-05-12 02:05:00,
2013-05-11 22:10:00,62.1,61.5,29.70,East,90,0.0,0.0,98,0.00,SCT,,0.00,WeatherDisplay:10.37,2013-05-12 02:10:00,
2013-05-11 22:15:00,62.1,61.5,29.69,East,90,0.0,0.0,98,0.00,SCT,,0.00,WeatherDisplay:10.37,2013-05-12 02:15:00,
2013-05-11 22:20:00,62.1,61.5,29.70,East,90,0.0,0.0,98,0.00,SCT,,0.00,WeatherDisplay:10.37,2013-05-12 02:20:00,
2013-05-11 22:25:00,62.1,61.5,29.69,East,90,0.0,0.0,98,0.00,SCT,,0.00,WeatherDisplay:10.37,2013-05-12 02:25:00,
2013-05-11 22:30:00,61.9,61.3,29.69,East,90,0.0,0.0,98,0.00,SCT,,0.00,WeatherDisplay:10.37,2013-05-12 02:30:00,
2013-05-11 22:35:00,61.9,61.3,29.69,East,90,0.0,0.0,98,0.00,SCT,,0.00,WeatherDisplay:10.37,2013-05-12 02:35:00,
2013-05-11 22:41:00,61.7,61.1,29.69,East,90,0.0,0.0,98,0.00,SCT,,0.00,WeatherDisplay:10.37,2013-05-12 02:41:00,
2013-05-11 22:46:00,61.6,61.0,29.69,East,90,0.0,0.0,98,0.00,BKN,,0.00,WeatherDisplay:10.37,2013-05-12 02:46:00,
2013-05-11 22:51:00,61.5,61.0,29.69,East,90,0.0,0.0,98,0.00,BKN,,0.00,WeatherDisplay:10.37,2013-05-12 02:51:00,
2013-05-11 22:56:00,61.5,60.9,29.69,East,90,0.0,0.0,98,0.00,BKN,,0.00,WeatherDisplay:10.37,2013-05-12 02:56:00,
2013-05-11 23:01:00,61.3,60.8,29.69,East,90,0.0,0.0,98,0.00,BKN,,0.00,WeatherDisplay:10.37,2013-05-12 03:01:00,
2013-05-11 23:06:00,61.3,60.8,29.70,East,90,0.0,0.0,98,0.00,BKN,,0.00,WeatherDisplay:10.37,2013-05-12 03:06:00,
2013-05-11 23:11:00,61.2,60.6,29.70,East,90,0.0,0.0,98,0.00,BKN,,0.00,WeatherDisplay:10.37,2013-05-12 03:11:00,
2013-05-11 23:16:00,61.2,60.6,29.68,East,90,0.0,0.0,98,0.00,BKN,,0.00,WeatherDisplay:10.37,2013-05-12 03:16:00,
2013-05-11 23:21:00,61.2,60.6,29.69,East,90,0.0,0.0,98,0.00,BKN,,0.00,WeatherDisplay:10.37,2013-05-12 03:21:00,
2013-05-11 23:26:00,61.2,60.6,29.69,East,90,0.0,0.0,98,0.00,BKN,,0.00,WeatherDisplay:10.37,2013-05-12 03:26:00,
2013-05-11 23:31:00,61.0,60.4,29.69,East,90,0.0,0.0,98,0.00,BKN,,0.00,WeatherDisplay:10.37,2013-05-12 03:31:00,
2013-05-11 23:40:00,61.0,60.4,29.69,East,90,0.0,0.0,98,0.00,,,0.00,WeatherDisplay:10.37,2013-05-12 03:40:00,
2013-05-11 23:45:00,60.8,60.2,29.69,East,90,0.0,0.0,98,0.00,,,0.00,WeatherDisplay:10.37,2013-05-12 03:45:00,
2013-05-11 23:50:00,60.8,60.2,29.70,East,90,0.0,0.0,98,0.00,,,0.00,WeatherDisplay:10.37,2013-05-12 03:50:00,
2013-05-11 23:55:00,60.8,60.2,29.71,East,90,0.0,2.0,98,0.00,,,0.00,WeatherDisplay:10.37,2013-05-12 03:55:00,